TimeEST,TemperatureF,Dew PointF,Humidity,Sea Level PressureIn,VisibilityMPH,Wind Direction,Wind SpeedMPH,Gust SpeedMPH,PrecipitationIn,Events,Conditions,WindDirDegrees,DateUTC
12:52 AM,36.0,33.1,89,29.92,10.0,West,3.5,-,N/A,,Clear,260,2013-12-10 05:52:00
1:52 AM,33.1,30.9,92,29.93,7.0,Calm,Calm,-,N/A,,Clear,0,2013-12-10 06:52:00
2:52 AM,30.0,28.0,92,29.92,2.0,SSE,3.5,-,N/A,,Clear,160,2013-12-10 07:52:00
3:02 AM,30.0,28.0,92,29.92,4.0,Calm,Calm,-,N/A,,Clear,0,2013-12-10 08:02:00
3:41 AM,30.0,27.0,88,29.91,2.5,Calm,Calm,-,N/A,,Clear,0,2013-12-10 08:41:00
3:48 AM,30.2,28.4,93,29.91,4.0,Calm,Calm,-,N/A,,Clear,0,2013-12-10 08:48:00
3:52 AM,30.0,27.0,88,29.92,3.0,Calm,Calm,-,N/A,,Partly Cloudy,0,2013-12-10 08:52:00
3:59 AM,28.9,27.0,92,29.90,1.8,Calm,Calm,-,N/A,,Clear,0,2013-12-10 08:59:00
4:09 AM,28.9,27.0,92,29.89,3.0,Calm,Calm,-,N/A,,Clear,0,2013-12-10 09:09:00
4:21 AM,28.9,27.0,92,29.91,1.8,Calm,Calm,-,N/A,,Partly Cloudy,0,2013-12-10 09:21:00
4:31 AM,28.0,26.1,92,29.92,3.0,Variable,3.5,-,N/A,,Clear,0,2013-12-10 09:31:00
4:52 AM,30.0,28.0,92,29.93,6.0,Calm,Calm,-,N/A,,Clear,0,2013-12-10 09:52:00
5:52 AM,32.0,28.9,88,29.96,7.0,SSW,3.5,-,N/A,,Clear,210,2013-12-10 10:52:00
6:52 AM,33.1,30.9,92,29.90,4.0,Calm,Calm,-,N/A,,Scattered Clouds,0,2013-12-10 11:52:00
7:04 AM,33.1,30.0,89,29.91,2.5,SSE,3.5,-,N/A,,Partly Cloudy,160,2013-12-10 12:04:00
7:14 AM,34.0,30.9,89,29.93,5.0,Calm,Calm,-,N/A,,Clear,0,2013-12-10 12:14:00
7:52 AM,34.0,30.9,89,29.95,3.0,Calm,Calm,-,N/A,,Clear,0,2013-12-10 12:52:00
8:19 AM,34.0,32.0,92,29.95,2.0,Calm,Calm,-,N/A,,Clear,0,2013-12-10 13:19:00
8:27 AM,34.0,32.0,92,29.95,1.8,WNW,3.5,-,N/A,,Clear,300,2013-12-10 13:27:00
8:34 AM,34.0,32.0,92,29.95,3.0,Calm,Calm,-,N/A,,Clear,0,2013-12-10 13:34:00
8:52 AM,35.1,32.0,89,29.95,5.0,NW,4.6,-,N/A,,Partly Cloudy,310,2013-12-10 13:52:00
9:52 AM,35.1,32.0,89,29.95,5.0,West,5.8,-,0.00,Snow,Light Snow,270,2013-12-10 14:52:00
10:01 AM,35.1,32.0,89,29.95,2.5,West,5.8,-,0.00,Snow,Light Snow,260,2013-12-10 15:01:00
10:11 AM,35.1,32.0,89,29.92,1.2,West,3.5,-,0.01,Snow,Light Snow,270,2013-12-10 15:11:00
10:30 AM,34.0,30.9,89,29.92,0.8,Calm,Calm,-,0.02,Snow,Light Snow,0,2013-12-10 15:30:00
10:47 AM,33.8,32.0,93,29.91,0.5,Calm,Calm,-,0.04,Fog-Snow,Snow,0,2013-12-10 15:47:00
10:52 AM,34.0,32.0,92,29.91,0.5,SW,3.5,-,0.04,Fog-Snow,Snow,220,2013-12-10 15:52:00
11:42 AM,34.0,32.0,92,29.85,1.0,Calm,Calm,-,0.04,Snow,Light Snow,0,2013-12-10 16:42:00
11:52 AM,34.0,30.9,89,29.85,0.8,Calm,Calm,-,0.04,Snow,Light Snow,0,2013-12-10 16:52:00
12:03 PM,34.0,32.0,92,29.84,0.8,Calm,Calm,-,0.01,Snow,Light Snow,0,2013-12-10 17:03:00
12:21 PM,34.0,32.0,92,29.81,0.8,Calm,Calm,-,0.01,Snow,Light Snow,0,2013-12-10 17:21:00
12:31 PM,34.0,30.9,89,29.83,1.0,Calm,Calm,-,0.01,Snow,Light Snow,0,2013-12-10 17:31:00
12:52 PM,34.0,32.0,92,29.83,1.0,WSW,3.5,-,0.01,Snow,Light Snow,250,2013-12-10 17:52:00
12:57 PM,34.0,30.9,89,29.82,2.0,West,4.6,-,0.00,Snow,Light Snow,270,2013-12-10 17:57:00
1:07 PM,34.0,32.0,92,29.81,1.2,West,3.5,-,0.01,Snow,Light Snow,280,2013-12-10 18:07:00
1:19 PM,34.0,30.9,89,29.81,2.0,NW,3.5,-,0.01,Snow,Light Snow,310,2013-12-10 18:19:00
1:24 PM,34.0,30.9,89,29.81,3.0,WNW,3.5,-,0.01,Snow,Light Snow,300,2013-12-10 18:24:00
1:33 PM,34.0,30.9,89,29.78,1.8,West,3.5,-,0.01,Snow,Light Snow,270,2013-12-10 18:33:00
1:48 PM,33.8,30.2,87,29.82,3.0,West,4.6,-,0.02,Snow,Light Snow,270,2013-12-10 18:48:00
1:52 PM,34.0,30.9,89,29.80,4.0,Variable,3.5,-,0.02,Snow,Light Snow,0,2013-12-10 18:52:00
2:20 PM,34.0,30.9,89,29.81,1.8,WNW,3.5,-,0.00,Snow,Light Snow,290,2013-12-10 19:20:00
2:28 PM,34.0,30.9,89,29.81,2.5,West,4.6,-,0.00,Snow,Light Snow,280,2013-12-10 19:28:00
2:34 PM,34.0,30.9,89,29.81,1.8,Variable,4.6,-,0.00,Snow,Light Snow,0,2013-12-10 19:34:00
2:39 PM,34.0,30.9,89,29.80,1.2,WNW,5.8,-,0.00,Snow,Light Snow,290,2013-12-10 19:39:00
2:52 PM,34.0,30.0,85,29.81,1.0,WNW,5.8,-,0.00,Snow,Light Snow,300,2013-12-10 19:52:00
3:06 PM,33.1,30.0,89,29.80,1.5,NW,4.6,-,0.01,Snow,Light Snow,310,2013-12-10 20:06:00
3:16 PM,33.1,30.0,89,29.80,2.5,WNW,4.6,-,0.01,Snow,Light Snow,290,2013-12-10 20:16:00
3:52 PM,33.1,30.0,89,29.82,4.0,WNW,4.6,-,0.01,Snow,Light Snow,290,2013-12-10 20:52:00
4:52 PM,33.1,30.0,89,29.85,2.5,WSW,4.6,-,0.00,Snow,Light Snow,250,2013-12-10 21:52:00
5:01 PM,33.1,30.0,89,29.85,2.0,West,4.6,-,0.01,Snow,Light Snow,260,2013-12-10 22:01:00
5:22 PM,33.1,30.0,89,29.85,2.5,West,3.5,-,0.01,Snow,Light Snow,260,2013-12-10 22:22:00
5:31 PM,33.1,30.0,89,29.84,2.5,WSW,3.5,-,0.01,Snow,Light Snow,250,2013-12-10 22:31:00
5:52 PM,33.1,30.9,92,29.85,2.5,Calm,Calm,-,0.01,Snow,Light Snow,0,2013-12-10 22:52:00
5:56 PM,33.1,30.9,92,29.85,3.0,Calm,Calm,-,0.00,Snow,Light Snow,0,2013-12-10 22:56:00
6:05 PM,33.1,30.9,92,29.86,2.5,WNW,3.5,-,0.00,Snow,Light Snow,300,2013-12-10 23:05:00
6:24 PM,33.1,30.0,89,29.86,3.0,WNW,6.9,-,0.01,Snow,Light Snow,290,2013-12-10 23:24:00
6:33 PM,33.1,28.9,85,29.87,4.0,WNW,5.8,-,0.01,Snow,Light Snow,290,2013-12-10 23:33:00
6:52 PM,33.1,28.9,85,29.88,8.0,WNW,5.8,-,0.01,,Overcast,290,2013-12-10 23:52:00
7:15 PM,33.1,28.9,85,29.89,9.0,WNW,3.5,-,N/A,,Overcast,290,2013-12-11 00:15:00
7:52 PM,32.0,25.0,75,29.90,9.0,WNW,8.1,19.6,N/A,,Overcast,290,2013-12-11 00:52:00
8:52 PM,30.0,21.9,72,29.92,10.0,WNW,9.2,-,N/A,,Mostly Cloudy,290,2013-12-11 01:52:00
9:52 PM,28.0,19.9,72,29.96,10.0,West,5.8,-,N/A,,Clear,260,2013-12-11 02:52:00
10:52 PM,28.0,18.0,66,29.99,10.0,WNW,13.8,19.6,N/A,,Clear,290,2013-12-11 03:52:00
11:52 PM,27.0,18.0,69,30.02,10.0,West,8.1,-,N/A,,Clear,270,2013-12-11 04:52:00